sat.trackr.live / text

‹ back to catalog

STARLINK-36000

NORAD 66807 · 2025-278S

PAYLOAD ACTIVE UNKNOWN

§ Identity

Operator
Country
US
Launch date
2025-12-01
Launch site
AFETR
Launch vehicle
Mass (kg)
RCS (m²)

Purposes: comms

External: N2YO · Heavens-Above · Gunter

§ Orbital elements

Epoch: 2026-09-20T22:52:48.303840Z

Period
94.27 min
Inclination
43.0006°
Eccentricity
0.0001542
Mean motion
15.27584811 rev/d
Perigee alt
482.0 km
Apogee alt
484.1 km
Semi-major
6,861.2 km
B*
6.4542e-4
RAAN
91.4939°
Arg perigee
272.1393°
Mean anomaly
87.9282°
Rev number
4,507

§ Raw data

STARLINK-360001 66807U 25278S   26263.95333685  .00017543  00000+0  64542-3 0  99952 66807  43.0006  91.4939 0001542 272.1393  87.9282 15.27584811 45070

JSON: /api/v1/satellites/66807 · /tle

For live sub-satellite position, see the globe view (requires WebGL).

§ Visibility from observer

Set your observer location to see the next 7 days of passes ≥ 10°. The values pass through the URL so the page stays shareable.

No JS? Fill the form by hand. The geolocation button needs JavaScript.